Location: Bo?azc?k
(36.5864°N, 29.6775°E)
Time: 11:17:43
(UTC+00:00)

Daily predictions for brighter satellites

Satellite Brightness Start Highest point End
(mag) Time Altitude Azimuth Time Altitude Azimuth Time Altitude Azimuth
Cosmos 1607 3.9 17:17:34 10° SSW 17:23:35 64° ESE 17:29:43 10° NE
ISS -0.8 17:23:22 10° WNW 17:25:33 16° NNW 17:27:45 10° NNE
SJ-6B 2.6 17:22:57 10° S 17:26:25 78° WSW 17:29:53 10° NNW
Meteor 2-3 Rocket 4.1 17:21:36 10° N 17:27:03 48° ENE 17:32:31 10° SSE
Cosmos 1459 Rocket 4.1 17:24:38 10° SSE 17:30:41 54° E 17:36:39 10° NNE
Cosmos 1302 Rocket 4.4 17:26:42 10° S 17:31:29 39° ESE 17:36:16 10° NE
Cosmos 2082 Rocket 2.5 17:26:25 10° S 17:31:47 44° ESE 17:37:10 10° NE
Terra 3.2 17:28:47 10° ESE 17:32:21 22° ENE 17:35:56 10° NNE
Cosmos 1536 Rocket 3.6 17:28:47 10° N 17:33:07 64° E 17:37:28 10° SSE
ATLAS CENTAUR Rocket 3.9 17:30:53 10° WSW 17:33:49 16° SSW 17:36:19 10° SSE
USA 305 4.2 17:30:48 10° NNW 17:34:13 25° NE 17:37:22 10° E
Resurs 01 Rocket 3.3 17:30:17 10° SSW 17:34:16 35° W 17:38:16 10° NNW
Cosmos 1802 Rocket 4.4 17:29:58 10° SSE 17:35:45 43° E 17:41:29 10° NNE
Cosmos 676 Rocket 4.4 17:31:22 10° NNW 17:36:31 64° WSW 17:41:35 10° S
NOSS 3-3 (C) 3.8 17:35:08 10° S 17:39:46 42° ESE 17:45:01 10° NE
Cosmos 2151 Rocket 4.1 17:35:36 10° SSW 17:39:54 62° W 17:44:14 10° N
Okean 2 Rocket 3.2 17:36:02 10° S 17:40:30 87° W 17:45:01 10° N
USA 276 2.5 17:41:52 10° SW 17:42:02 10° SW 17:42:12 10° SW
Cosmos 1743 3.7 17:43:49 10° NNE 17:46:05 19° ENE 17:47:40 13° ESE
Delta 2 Rocket 2.7 17:43:30 10° WSW 17:46:35 52° SSE 17:49:24 11° E
USA 215 3.5 17:40:21 10° SE 17:46:50 70° SW 17:53:22 10° NW
Cosmos 292 Rocket 3.7 17:42:43 10° NNW 17:47:29 90° WSW 17:52:11 10° SSE
Cosmos 1697 Rocket 2.9 17:43:47 10° NNW 17:49:24 73° WSW 17:54:57 10° SSE
USA 229 DEB 4.4 17:43:35 10° NW 17:51:22 71° WSW 17:59:44 10° SSE
USA 229 4.4 17:43:38 10° NW 17:51:26 72° WSW 17:59:49 10° SSE
Cosmos 2100 Rocket 4.1 17:45:53 10° S 17:52:05 89° W 17:58:25 10° N
SJ 16-02 4.4 17:51:16 10° W 17:52:17 11° W 17:53:18 10° WSW
Helios 1A Rocket 2.4 17:51:51 10° NNE 17:54:54 47° ESE 17:57:55 10° S
DELTA 2 R/B (1) 3.9 17:50:08 10° W 17:55:42 71° N 18:01:16 10° ENE
Cosmos 1455 Rocket 3.1 17:51:26 10° S 17:55:45 57° E 18:00:04 10° NNE
Meteor 1-27 4.3 17:50:34 10° S 17:56:05 57° E 18:01:34 10° NNE
Meteor 1-31 Rocket 2.5 17:53:06 10° SSE 17:56:33 66° ENE 17:59:59 10° N
IRAS Rocket 4.3 17:53:16 10° SSE 17:58:38 65° ENE 18:04:04 10° N
Okean O Rocket 3.3 17:56:46 13° E 17:58:51 17° ENE 18:01:38 10° NNE
SPOT 5 3.0 17:56:25 10° S 18:00:40 63° W 18:05:00 10° NNW
Cosmos 1850 Rocket 3.9 17:55:33 10° NNW 18:00:43 75° ENE 18:05:36 12° SSE
SL-24 R/B 4.3 17:57:36 10° NNE 18:02:02 90° W 18:07:06 10° SSW
Cosmos 1892 Rocket 4.0 17:58:31 10° N 18:02:37 42° E 18:05:41 16° SE
Cosmos 2228 3.4 17:58:55 10° SSE 18:02:46 39° E 18:06:36 10° NNE
Cosmos 2233 Rocket 4.3 17:57:02 10° SSE 18:02:51 44° E 18:08:38 10° NNE
SL-16 R/B 4.2 18:01:12 10° NNE 18:03:57 14° NE 18:06:42 10° E
Okean 1 Rocket 4.2 18:03:52 10° SSW 18:08:03 45° W 18:12:18 10° N
CZ-3 Stage 3 3.0 18:06:22 10° SSW 18:09:12 14° S 18:09:52 14° SSE
USA 186 3.9 18:10:49 10° ENE 18:10:49 10° ENE 18:11:06 10° ENE
COSMOS 2406 3.5 18:07:05 10° S 18:12:29 44° ESE 18:17:55 10° NE
MetOp-B 4.2 18:11:30 15° SSE 18:15:51 62° ENE 18:21:09 10° N
Cosmos 2084 Rocket 4.4 18:13:55 10° NNW 18:17:47 34° NE 18:19:50 22° E
Okean-O 3.7 18:17:41 21° ESE 18:19:26 28° ENE 18:23:09 10° NNE
BREEZE-M DEB (TANK) 3.2 18:11:32 10° SW 18:20:12 88° SE 18:23:02 10° NE
Cosmos 1980 Rocket 2.2 18:14:36 10° NNW 18:20:19 87° ENE 18:24:35 18° SSE
CSL-04 Rocket 4.4 18:15:01 10° S 18:20:22 52° W 18:25:42 10° NNW
Cosmos 1725 Rocket 4.0 18:15:04 10° S 18:21:21 85° W 18:27:37 10° N
CZ-4 R/B 1.8 18:18:38 11° S 18:22:04 53° W 18:25:38 10° NNW
Cosmos 1782 2.5 18:19:03 10° S 18:22:33 82° W 18:26:05 10° N
ASTEX 1 4.5 18:19:00 10° SSW 18:23:43 45° W 18:28:29 10° NNW
Spot 2 Rocket 4.1 18:22:03 23° SE 18:24:35 39° ENE 18:29:14 10° N
SKYMED 3 4.2 18:21:08 10° NNE 18:25:06 89° ESE 18:29:05 10° SSW
SL-4 R/B 4.3 18:23:33 10° W 18:25:48 15° SW 18:28:04 10° SSW
ATLAS 3B R/B 3.4 18:20:15 10° NW 18:27:40 56° WSW 18:33:49 13° S
ERS-1 Rocket 3.0 18:26:32 15° S 18:30:43 79° WSW 18:35:45 10° NNW
Cosmos 2333 Rocket 3.8 18:27:44 10° N 18:31:53 20° NE 18:34:15 16° E
Milstar 3 3.6 18:29:35 10° WSW 18:35:41 38° S 18:39:42 24° SE
Cosmos 2016 Rocket 4.2 18:29:46 10° SSW 18:36:01 71° W 18:42:13 10° N
Tsikada Rocket 4.0 18:31:03 10° N 18:37:08 63° E 18:40:47 25° SSE
CZ-4B R/B 3.3 18:37:33 19° S 18:41:45 81° WSW 18:47:24 10° NNW
Cosmos 2360 Rocket 4.1 18:42:43 10° NNE 18:45:55 15° NE 18:47:55 13° ENE
Cosmos 1992 Rocket 4.2 18:42:00 10° SSW 18:47:11 70° WNW 18:52:23 10° NNE
Cosmos 1461 2.9 18:45:46 10° SW 18:49:25 65° WNW 18:53:06 10° NNE
Meteor 2-12 Rocket 4.4 18:44:05 10° N 18:50:11 90° W 18:54:02 24° S
Cosmos 2219 Rocket 4.4 18:57:11 10° NNE 18:59:13 12° NE 19:01:07 10° ENE
USA 305 3.0 18:55:52 10° NW 18:59:41 44° SW 18:59:50 44° SW
Cosmos 220 Rocket 3.8 19:00:17 59° E 19:00:17 59° E 19:04:13 10° NNE
YAOGAN 11 4.2 18:55:51 10° N 19:00:18 76° WNW 19:02:59 24° SSW
Cosmos 1437 Rocket 2.6 19:02:54 62° NE 19:02:54 62° NE 19:06:03 10° NNE
Gbstr 26 Del rocket 3.3 19:00:09 10° WNW 19:04:51 53° SW 19:05:31 48° SSW
Cosmos 2098 Rocket 3.8 19:07:46 39° E 19:07:46 39° E 19:11:38 10° NNE
Cosmos 1513 Rocket 4.5 19:06:37 38° SSE 19:08:55 63° E 19:15:00 10° NNE
GEOS 3 Rocket 4.4 19:07:19 29° S 19:09:31 44° WSW 19:14:38 10° NW
Terra 3.2 19:06:35 16° SSW 19:09:38 33° W 19:13:53 10° NNW
Cosmos 1464 Rocket 4.3 19:09:13 39° ESE 19:10:06 42° E 19:15:49 10° NNE
Cosmos 2061 Rocket 4.4 19:04:40 10° SSW 19:10:46 60° W 19:16:59 10° N
Cosmos 1626 Rocket 3.4 19:09:11 10° N 19:13:35 85° E 19:14:01 72° SSE
Cosmos 2082 Rocket 4.5 19:11:24 10° WSW 19:15:59 24° WNW 19:20:36 10° N
Cosmos 2322 Rocket 3.3 19:13:12 10° N 19:18:04 29° ENE 19:18:59 27° ENE
Cosmos 2237 4.3 19:13:34 10° NNW 19:19:16 69° WSW 19:21:01 44° S
Cosmos 2151 2.9 19:18:22 10° N 19:22:05 68° NNE 19:22:05 68° NNE
Cosmos 2369 4.2 19:19:46 10° NNW 19:25:18 52° WSW 19:27:11 37° SSW
Cosmos 1072 Rocket 4.4 19:26:52 53° SSE 19:28:10 67° E 19:34:26 10° NNE
Cosmos 540 Rocket 4.4 19:33:39 34° ENE 19:33:39 34° ENE 19:37:02 10° NNE
CZ-4B R/B 3.9 19:35:01 35° N 19:35:01 35° N 19:37:08 10° NNW
Okean O Rocket 2.6 19:34:00 34° WSW 19:34:43 36° W 19:38:42 10° NNW
Chandra Rocket (1) 3.8 19:17:51 10° W 19:37:13 51° SSW 19:38:38 46° SSE
DELTA 2 R/B (1) 3.7 19:36:50 10° WNW 19:42:24 69° N 19:43:28 55° ENE
Cosmos 2278 3.7 19:38:31 10° NNW 19:44:13 68° ENE 19:44:30 66° E
Meteor 1-5 Rocket 4.3 19:41:21 10° N 19:47:08 66° E 19:47:20 65° E
Cosmos 2034 Rocket 4.1 19:48:12 57° E 19:48:21 57° E 19:54:33 10° NNE
SL-16 R/B 2.0 19:43:03 10° NNW 19:48:45 85° WSW 19:49:05 79° S
NOSS 3-4 (A) 4.3 19:42:22 10° NNW 19:49:13 53° NE 19:51:14 43° E
NOSS 3-4 (C) 4.3 19:43:00 10° NNW 19:49:52 53° NE 19:51:53 43° E
Okean 1-7 Rocket 4.3 19:49:55 10° N 19:53:16 48° NNE 19:53:16 48° NNE
Okean-O 4.5 19:55:00 21° WSW 19:55:37 22° W 19:59:03 10° NW
Ariane Rocket 3.1 19:58:02 70° W 19:58:02 70° W 20:02:55 10° NNW
SPOT 3 Rocket 4.1 20:01:10 49° WSW 20:01:21 49° W 20:06:20 10° NNW
Nadezhda 4 Rocket 3.8 20:05:22 10° N 20:11:31 85° W 20:11:39 84° SW
Cosmos 1763 Rocket 3.8 20:13:22 65° NW 20:13:22 65° NW 20:18:19 10° NNE
DNEPR-1 R/B 4.4 20:09:32 10° NNW 20:15:31 87° ENE 20:15:40 85° ESE
Cosmos 1833 4.4 20:16:05 61° W 20:16:28 63° WNW 20:22:05 10° NNE
Cosmos 2333 Rocket 2.6 20:10:56 10° NNW 20:16:16 55° W 20:16:16 55° W
Cosmos 2195 Rocket 4.4 20:23:33 10° N 20:29:20 79° N 20:29:20 79° N
Cosmos 2360 Rocket 2.5 20:24:50 10° NNW 20:29:39 63° NW 20:29:39 63° NW
Cosmos 2026 Rocket 4.0 20:27:50 10° N 20:33:45 76° NNE 20:33:45 76° NNE
Cosmos 2219 Rocket 2.7 20:38:18 10° NNW 20:42:48 58° NNW 20:42:48 58° NNW
Cosmos 2322 Rocket 3.5 20:56:57 10° NW 21:00:46 32° WNW 21:00:46 32° WNW
Cosmos 2237 Rocket 4.0 21:16:17 10° N 21:20:30 22° NE 21:20:30 22° NE
Aureole 1 Rocket 4.5 21:17:39 10° NNW 21:22:39 58° NW 21:22:39 58° NW
Cosmos 2227 Rocket 4.3 21:29:18 17° ENE 21:29:18 17° ENE 21:30:55 10° NE
COSMOS 2428 3.6 21:26:14 10° NNW 21:30:13 44° N 21:30:13 44° N
USA 234 3.5 21:40:35 10° NE 21:47:01 62° NW 21:47:10 62° NW
ACS3 Solar Sail 3.4 21:50:25 10° NE 21:53:51 24° ENE 21:53:51 24° ENE
CZ-2C R/B 4.1 21:50:46 10° NNE 21:54:49 47° NNE 21:54:49 47° NNE
Cosmos 2297 Rocket 3.2 22:01:44 42° N 22:01:44 42° N 22:05:35 10° NNE
BREEZE-M DEB (TANK) 4.4 22:03:00 10° WSW 22:24:49 69° NW 22:30:20 10° NE
Cosmos 2219 4.4 22:51:04 34° ENE 22:51:04 34° ENE 22:54:50 10° NE
Lacrosse 4 Rocket 4.1 22:51:57 15° NNW 22:51:57 15° NNW 22:53:00 10° N
SL-16 R/B 3.5 22:47:55 10° N 22:53:02 33° ENE 22:53:44 32° ENE
CZ-2C R/B 4.2 22:58:57 27° NW 22:58:57 27° NW 23:01:31 10° NNW
Cosmos 2237 Rocket 3.6 22:59:26 10° NNW 23:02:17 29° NW 23:02:17 29° NW
Cosmos 2227 Rocket 3.2 23:11:04 38° NW 23:11:04 38° NW 23:15:31 10° N
Cosmos 2263 Rocket 2.8 23:20:54 48° NNW 23:20:54 48° NNW 23:25:24 10° NNE
ADEOS Rocket 4.0 23:14:27 10° NNE 23:21:36 45° E 23:22:57 41° SE
SeaSat 1 3.9 23:28:37 30° NW 23:28:37 30° NW 23:31:06 10° NNW
ACS3 Solar Sail 2.5 23:32:14 10° N 23:37:20 40° WNW 23:37:20 40° WNW
S3M 3.8 23:40:11 89° ESE 23:40:12 89° E 23:46:23 10° N
Cosmos 1570 Rocket 4.3 23:42:50 63° N 23:42:50 63° N 23:47:20 10° NNE
ATLAS 2AS CENTAUR R/B 4.3 23:38:23 10° NNW 23:44:17 31° NE 23:50:12 10° ESE
Cosmos 2315 Rocket 3.9 23:50:00 75° SSE 23:50:34 85° E 23:56:56 10° N
Cosmos 1844 Rocket 3.2 23:50:47 48° ESE 23:51:00 48° ESE 23:56:20 10° NNE
Resurs 1-4 Rocket 3.8 23:46:54 10° NE 23:51:00 23° E 23:52:31 20° ESE
Cosmos 1125 Rocket 4.0 23:46:44 10° NNW 23:50:48 53° NW 23:50:48 53° NW
MSX 3.7 23:46:15 10° NNE 23:52:03 83° WNW 23:52:04 83° WNW
Cosmos 2082 3.8 23:53:05 64° NW 23:53:05 64° NW 23:58:25 10° NNE
